GFSNE_850_spd_057.txt.gz
Wind_Speed
35 32 30 34 35 31 28 31 31 26 27 29 24 24 23 22 23 25 27 26 29 27 27 28 29 30 32 34 36 38 38 40 44 45 45 45 43 38
40 41 42 41 35 31 28 30 31 32 27 23 22 23 22 22 25 26 26 28 27 25 25 27 29 31 32 34 36 39 42 44 45 46 46 47 44 42
45 41 39 41 36 30 30 32 33 32 31 30 25 24 24 25 27 26 29 29 27 24 24 25 27 29 31 34 36 38 42 44 46 47 48 48 46 45
34 40 40 38 34 32 32 34 34 33 30 28 26 25 24 25 24 25 26 26 24 23 24 27 30 32 34 36 38 40 43 47 49 49 46 45 46 44
40 32 31 38 34 36 35 34 35 35 30 27 25 24 25 25 25 24 22 24 24 24 26 28 30 30 31 32 34 37 39 40 42 43 46 46 41 40
38 35 44 39 39 38 32 35 36 31 27 24 25 24 24 22 21 22 23 24 24 24 27 27 28 30 32 33 36 38 38 39 40 43 42 39 39 40
34 41 42 39 39 33 33 35 31 28 26 25 25 22 20 21 20 22 24 25 26 25 25 27 33 34 34 34 36 37 35 35 34 36 34 31 30 35
42 40 38 38 33 33 30 27 24 25 25 24 23 20 19 21 21 22 24 24 19 25 28 33 33 34 34 34 35 31 29 29 28 28 29 29 29 29
34 38 36 33 32 30 25 26 26 26 24 23 20 18 19 21 21 22 23 23 23 26 31 33 30 32 28 31 32 25 23 24 23 22 19 23 23 21
35 35 32 30 27 24 25 26 25 24 21 19 16 18 19 20 21 21 23 23 26 27 27 28 27 32 30 33 31 20 18 22 19 20 20 18 17 24
30 28 26 24 24 26 25 24 22 20 17 14 17 19 19 19 20 20 20 23 25 24 26 23 25 32 37 32 19 18 20 20 18 20 18 13 15 18
26 25 23 24 23 24 21 18 16 14 13 15 16 17 16 16 17 18 23 24 22 24 17 25 26 20 20 25 14 22 20 21 20 17 10 15 14 10
24 25 24 21 19 17 14 11 11 13 14 15 14 14 15 15 18 21 21 22 24 27 26 25 26 25 19 26 25 20 20 20 20 10 6 8 9 8
20 19 17 16 13 11 10 11 13 13 12 12 13 16 19 21 21 20 21 25 28 29 26 23 31 26 24 26 28 22 17 16 15 8 9 9 11 15
15 14 12 11 10 9 11 11 10 10 12 16 20 20 19 19 20 24 27 26 28 26 23 21 25 26 25 28 28 23 21 15 13 13 12 13 13 11
12 11 9 6 5 9 10 10 13 15 16 19 18 18 19 22 25 25 25 25 27 26 21 18 20 23 27 27 25 25 20 16 11 15 14 13 13 14
7 5 4 5 7 10 14 16 15 15 18 17 18 22 25 24 23 22 22 23 25 26 25 22 19 22 24 25 23 23 20 20 16 12 13 13 15 15
5 5 7 9 15 16 15 14 17 19 18 21 22 22 22 22 22 22 21 21 22 23 25 23 23 21 18 17 19 22 21 19 16 14 13 13 12 11
9 11 12 14 14 13 14 16 17 18 20 20 21 21 21 22 22 20 20 19 19 21 21 21 19 15 16 17 15 13 18 17 15 13 13 12 10 8
8 8 9 10 11 12 13 15 16 18 20 21 21 21 21 22 21 18 17 18 20 21 22 18 15 14 15 16 16 9 14 17 16 14 12 12 11 9
8 8 8 9 10 12 14 16 18 19 21 22 22 21 20 20 19 19 18 20 22 20 19 19 17 19 19 16 20 19 16 15 17 15 13 11 8 7
6 7 9 11 13 15 17 19 20 20 19 17 16 17 18 17 17 16 16 17 17 18 20 21 19 17 16 16 18 17 17 16 16 16 15 13 9 8
8 9 12 14 16 18 19 19 20 21 22 22 22 19 18 18 17 16 16 17 17 18 18 20 18 17 17 17 17 17 17 16 16 16 15 15 16 15

GFSNE_850_spd_060.txt.gz
Wind_Speed
36 37 33 32 33 34 31 28 35 25 27 22 25 28 26 27 30 26 25 26 28 29 29 29 30 31 31 32 33 35 37 39 41 43 45 48 49 47
38 36 35 40 37 40 39 38 45 38 28 22 28 27 26 28 27 28 27 30 30 29 29 29 28 29 30 30 32 34 35 38 40 43 46 49 51 54
41 38 41 43 45 53 46 47 47 37 34 26 32 30 29 28 30 28 29 30 23 30 30 27 26 27 27 29 32 35 37 39 41 43 46 49 53 55
39 37 40 42 44 36 44 41 45 40 39 38 37 35 31 30 30 29 28 29 28 26 27 23 25 27 28 31 32 32 34 36 38 40 43 46 49 50
45 45 48 43 37 39 32 30 42 39 40 39 38 35 31 30 28 26 28 27 25 26 26 25 27 27 28 27 29 31 34 35 38 40 44 46 47 47
50 49 50 57 62 47 36 41 44 39 45 41 39 34 29 28 27 25 17 18 17 20 24 25 26 25 27 27 29 31 33 34 37 40 42 43 44 43
53 53 53 52 49 43 40 42 49 45 42 40 36 32 29 28 28 18 15 15 17 21 22 21 23 25 27 28 31 32 32 34 36 37 37 38 37 36
50 45 43 45 46 43 45 49 58 46 42 39 34 31 27 23 18 16 13 14 14 11 18 17 22 24 22 24 29 32 31 33 32 32 32 31 31 30
45 42 44 42 41 45 44 40 38 35 31 29 29 27 23 21 17 13 14 14 15 15 18 20 19 20 19 21 29 31 31 27 26 26 28 28 27 27
42 43 48 41 40 42 39 40 36 30 27 26 26 22 20 17 15 17 17 17 18 18 16 19 14 20 21 23 30 25 20 19 22 24 26 27 26 25
40 41 38 37 37 36 32 28 24 25 26 22 20 17 12 13 17 16 14 12 16 14 13 19 16 21 24 27 16 19 22 23 23 22 24 23 22 17
36 36 34 29 29 25 24 25 21 21 17 15 13 11 13 15 15 15 14 15 15 14 10 16 16 19 16 14 11 20 15 18 23 26 19 15 13 9
32 30 23 23 26 26 21 17 14 13 10 8 9 10 11 12 14 15 19 20 18 17 16 23 20 20 19 26 22 20 21 15 18 18 16 11 6 9
21 19 22 22 21 17 16 12 8 5 6 8 9 11 12 16 19 21 20 20 20 24 27 27 30 23 22 26 29 21 18 17 18 18 12 11 11 11
18 21 20 18 13 12 9 5 3 6 10 12 13 15 18 20 20 20 22 24 28 30 29 25 27 27 22 26 30 27 27 21 19 17 14 16 13 12
17 15 12 11 8 5 4 4 7 11 13 15 18 18 18 18 19 21 25 26 26 24 21 21 22 24 25 24 26 30 24 24 16 15 16 16 16 13
9 7 5 4 4 3 5 8 12 14 14 15 15 15 17 19 19 20 21 20 20 19 18 17 18 20 24 26 29 28 28 25 25 19 16 16 17 14
6 5 4 3 4 6 9 10 11 11 12 13 14 14 14 15 16 17 19 17 18 18 18 17 17 19 20 22 23 29 26 27 24 20 20 16 14 13
1 2 3 3 5 6 6 6 7 10 14 14 14 15 14 13 15 14 15 16 18 18 18 18 17 17 21 24 20 21 25 22 19 20 19 16 14 11
2 1 0 2 3 2 4 5 7 8 8 9 11 12 13 14 15 16 16 17 18 19 20 18 16 16 19 22 25 24 16 19 18 18 16 15 13 14
4 3 2 2 2 2 5 5 8 8 12 12 12 13 14 14 16 17 17 18 19 19 20 19 18 21 21 21 25 26 23 23 22 18 16 14 12 11
5 3 2 3 4 5 7 9 9 11 12 13 14 15 16 16 17 17 17 18 18 19 20 20 19 19 18 20 24 25 25 20 20 23 19 14 11 13
4 3 5 6 7 8 9 11 12 13 14 15 15 16 16 16 16 16 16 17 18 18 18 20 19 17 18 20 22 25 26 24 18 22 23 21 19 17

GFSNE_850_spd_063.txt.gz
Wind_Speed
43 39 38 36 31 32 29 29 29 24 24 27 30 28 38 39 38 40 34 35 34 33 30 29 30 33 34 34 33 32 32 33 35 36 37 38 41 43
43 48 45 43 40 36 36 37 35 35 33 31 37 36 38 41 41 39 35 35 32 33 31 31 33 34 33 32 30 31 30 31 32 35 37 39 41 44
45 44 45 45 43 40 41 41 36 40 41 48 42 36 43 38 39 38 34 34 34 33 32 34 32 31 31 30 29 28 29 31 34 35 37 39 40 43
48 45 44 41 42 42 41 44 45 43 45 44 41 43 45 48 41 39 38 36 34 27 30 35 31 29 28 27 27 28 30 31 32 34 36 38 41 43
48 47 47 45 45 49 51 46 45 57 49 36 43 41 47 43 43 41 40 35 30 28 32 33 31 29 28 27 27 28 29 30 32 34 36 38 40 43
50 50 50 49 52 55 51 52 55 55 56 48 44 45 50 47 44 41 39 35 31 23 20 23 26 26 26 26 26 28 29 31 32 32 35 37 40 40
51 51 51 56 58 56 55 55 59 57 53 53 49 49 51 48 49 45 38 28 19 20 21 20 20 21 22 25 26 27 30 33 34 34 36 37 38 36
47 50 52 52 50 53 49 46 46 54 56 57 52 50 48 50 44 34 28 26 24 20 16 17 19 20 22 23 22 27 31 33 32 34 34 34 33 33
44 46 46 48 49 46 45 40 43 49 49 44 45 45 46 37 26 25 24 21 17 14 14 18 21 24 23 18 20 29 33 32 32 29 29 31 32 32
46 50 51 53 48 44 43 43 41 47 46 42 35 33 26 23 23 21 17 13 15 18 20 19 18 22 20 24 30 32 32 26 24 25 26 27 30 31
47 48 49 52 50 45 42 39 38 35 27 22 21 21 21 19 17 14 11 15 15 14 14 16 19 26 20 28 28 17 22 24 21 23 25 29 29 28
45 45 46 44 38 35 28 27 26 23 19 20 14 12 12 9 7 10 13 14 14 13 14 20 15 15 19 14 18 17 23 23 21 25 24 26 23 19
33 31 28 27 21 17 15 17 18 18 18 15 13 6 5 6 8 11 16 17 18 19 16 20 17 18 23 29 26 21 25 25 14 19 19 25 18 13
18 16 12 10 11 15 16 16 15 10 5 4 2 5 10 11 10 13 17 20 22 23 23 24 29 28 24 30 31 23 21 24 22 22 22 22 22 16
12 13 17 17 16 15 10 5 4 1 2 3 5 5 11 13 15 19 20 20 20 21 23 25 28 27 24 28 30 28 27 27 24 22 22 22 20 17
16 17 15 10 7 3 1 1 2 2 3 6 9 13 15 15 14 13 15 17 19 19 17 18 21 22 25 26 25 29 26 25 24 24 25 22 22 21
10 8 6 4 4 3 3 5 6 6 7 9 9 10 11 13 13 13 15 15 17 18 18 17 16 18 22 24 27 27 28 28 27 27 23 27 24 22
7 6 5 5 4 4 5 6 7 6 8 9 10 11 12 12 13 14 15 16 16 16 17 16 16 18 21 24 22 27 26 26 26 27 28 31 23 22
7 6 5 4 2 1 2 3 1 9 11 10 10 10 10 11 13 14 15 16 17 17 16 16 17 18 22 26 22 17 21 23 31 31 23 27 25 21
6 5 4 2 2 3 3 3 4 6 7 8 10 11 12 13 14 15 16 17 17 17 18 18 18 18 22 22 26 29 26 29 23 28 28 14 20 17
10 9 6 5 5 3 5 6 8 8 11 10 11 11 12 14 16 16 17 19 20 19 20 19 18 21 24 25 29 30 25 21 23 26 25 24 20 17
8 5 4 3 4 5 7 8 9 10 11 12 13 14 14 15 16 17 17 18 18 19 20 21 20 20 21 24 27 28 28 25 25 26 28 27 14 13
5 4 5 6 6 7 7 8 9 10 11 12 13 13 14 15 15 15 16 16 17 18 19 20 19 18 19 21 26 28 27 26 26 23 13 20 12 13

GFSNE_850_spd_069.txt.gz
Wind_Speed
41 41 43 30 35 36 38 34 32 33 36 44 42 41 40 40 39 37 32 32 35 43 45 47 48 46 44 45 44 44 44 42 41 38 38 37 36 34
42 42 44 40 41 40 39 40 39 41 42 44 48 47 46 49 47 44 41 39 35 38 42 49 54 50 49 47 47 46 46 43 40 38 37 37 35 33
47 48 50 48 46 47 45 46 47 47 49 51 52 54 54 54 51 48 46 47 45 41 47 46 52 52 50 46 45 44 42 39 39 37 37 35 33 32
55 50 54 54 55 51 52 53 53 54 53 51 51 53 55 55 52 51 50 50 51 48 47 46 45 51 53 51 47 42 39 38 35 35 34 32 33 32
59 58 57 54 56 58 59 59 58 57 56 57 58 56 54 54 53 52 51 53 54 53 53 53 52 54 52 49 43 38 36 34 30 31 33 33 32 32
59 60 60 57 57 56 56 57 56 57 57 57 54 53 51 54 53 52 53 57 55 53 54 57 54 49 42 38 38 39 38 34 30 28 32 30 29 29
56 58 60 61 59 58 57 58 56 57 57 54 52 52 51 53 54 59 55 51 49 45 49 50 44 36 33 34 33 31 32 21 18 25 26 27 28 31
60 59 57 57 58 56 55 57 58 57 59 56 54 52 55 60 58 58 55 49 42 40 40 40 38 36 38 35 31 32 16 15 20 23 25 31 32 36
55 53 52 51 51 51 50 52 55 59 60 60 56 53 50 47 46 49 48 45 39 34 28 33 37 34 31 29 23 12 11 20 21 26 32 35 37 42
53 53 54 54 54 52 51 50 49 49 51 57 54 58 56 50 38 32 29 27 27 26 27 28 30 27 24 18 12 12 18 20 26 29 33 36 37 32
58 60 60 56 55 53 50 51 53 54 56 56 53 42 31 28 26 20 20 20 21 17 16 15 14 14 15 15 13 20 28 27 31 34 31 29 31 33
49 50 52 52 53 54 56 57 52 42 34 27 19 13 14 13 14 12 16 18 18 11 11 10 10 12 10 16 19 23 26 26 27 28 28 33 34 34
47 48 47 46 46 44 31 25 27 24 15 13 11 10 9 9 7 8 6 7 9 9 10 12 14 16 18 19 19 20 21 26 31 35 36 33 28 26
33 27 21 10 9 10 8 13 15 14 15 13 13 14 10 5 4 3 0 5 7 10 13 15 16 18 21 27 30 30 30 30 30 30 28 26 26 25
17 16 15 17 21 24 25 20 17 15 13 10 9 10 6 3 1 2 5 8 9 11 12 14 16 19 21 24 28 29 30 30 25 18 14 16 19 21
29 25 20 22 22 20 21 15 13 12 10 9 5 5 3 1 2 4 5 7 9 10 11 13 15 16 19 22 23 25 22 22 24 19 18 21 20 20
24 25 21 17 19 17 15 14 10 9 8 6 4 3 1 2 3 4 7 9 10 12 13 12 11 13 15 17 21 23 25 25 25 26 25 28 27 20
16 16 17 16 14 15 11 10 8 7 7 6 5 4 4 5 5 6 8 9 10 11 11 12 16 19 19 19 16 19 21 25 26 24 25 31 33 29
13 14 15 14 11 10 9 9 8 7 6 6 5 5 6 6 7 9 10 11 12 13 15 17 18 19 23 23 18 13 22 25 27 27 27 27 32 34
13 14 14 11 10 8 7 6 3 3 4 4 6 7 8 9 11 12 12 13 15 16 16 13 12 13 19 25 28 28 24 25 26 28 28 26 27 28
11 11 9 6 5 4 2 2 2 3 4 6 8 9 10 10 9 10 11 11 11 12 14 15 16 18 22 25 28 28 25 21 22 26 27 29 31 31
8 7 5 2 1 1 1 2 4 6 6 6 7 9 9 9 10 10 8 9 12 13 16 18 17 16 17 19 24 29 32 31 26 24 22 23 25 30
4 3 3 3 4 5 6 5 5 6 6 7 8 9 10 10 7 6 7 10 12 14 14 15 17 19 19 20 22 26 26 26 27 25 18 14 19 24

GFSNE_850_spd_072.txt.gz
Wind_Speed
40 38 39 40 38 41 35 33 29 30 34 39 38 35 36 35 36 41 43 40 39 42 40 39 40 40 41 45 49 50 52 51 52 50 47 44 43 42
41 43 42 41 39 41 47 42 42 45 41 45 44 44 41 42 42 41 46 48 50 45 39 42 45 42 42 47 52 55 56 51 55 52 49 44 42 40
46 47 46 46 52 47 43 46 47 46 52 54 51 50 51 50 49 49 45 49 50 47 43 44 45 50 44 45 54 53 57 50 52 51 46 42 38 36
50 51 53 51 50 47 48 51 51 50 53 57 55 57 58 56 55 53 52 51 49 46 44 45 46 49 51 48 49 54 55 55 55 55 51 46 42 40
56 58 59 55 55 55 55 56 57 57 58 61 62 61 61 60 56 54 54 52 52 49 46 47 47 45 49 47 50 55 52 49 51 51 46 43 44 40
62 64 63 61 61 58 57 59 58 58 60 59 58 58 57 54 51 53 54 53 52 51 55 51 50 47 43 40 43 45 46 51 47 40 38 38 40 37
60 61 62 63 60 60 61 63 64 62 60 57 51 50 48 47 50 52 55 55 56 56 57 57 53 46 41 35 39 43 44 38 36 38 36 41 30 21
57 58 58 58 60 59 56 55 55 56 57 54 51 50 51 52 51 55 56 54 54 53 53 49 45 40 37 35 38 39 35 35 35 35 34 19 18 22
53 52 53 54 54 52 52 53 53 56 61 61 58 58 56 55 54 53 48 54 54 48 39 32 32 31 29 30 33 32 30 30 29 21 13 17 19 24
51 52 53 53 52 52 50 51 51 52 56 60 65 70 71 68 60 51 44 45 42 37 30 25 26 27 29 27 25 23 20 21 14 13 17 21 25 28
48 52 56 57 56 54 54 55 56 59 61 62 61 62 55 54 51 43 36 31 28 24 24 22 19 19 20 19 20 19 17 12 15 19 21 27 31 32
56 57 57 61 57 53 52 52 52 55 51 44 37 34 25 17 14 13 15 20 23 15 13 11 11 12 10 14 16 16 16 18 21 23 26 24 25 30
44 45 45 48 54 54 43 41 36 32 23 16 11 8 7 8 4 5 7 9 9 8 7 9 9 9 10 6 9 14 18 19 22 24 25 28 34 36
34 22 10 7 11 13 18 19 18 18 14 11 12 12 11 9 9 6 5 4 3 2 2 5 7 9 11 15 18 21 24 26 28 30 30 29 28 28
13 12 12 12 18 21 23 20 16 14 13 14 14 13 8 8 4 1 2 2 3 4 5 8 9 11 13 15 18 21 23 25 23 17 17 20 21 22
20 18 19 16 19 18 14 19 15 12 9 7 7 5 4 0 2 4 5 6 6 5 8 9 11 13 15 15 17 19 20 18 21 22 23 22 20 20
20 17 19 16 17 18 15 12 11 8 6 4 3 3 1 3 3 4 5 7 7 8 9 10 10 11 11 13 15 17 16 15 13 15 19 24 25 22
13 14 16 15 13 13 13 11 9 8 7 4 4 3 4 4 6 6 7 7 7 9 11 14 16 16 14 13 10 12 17 19 21 23 24 27 30 28
9 11 11 11 10 10 9 8 7 7 5 4 4 4 5 5 6 7 8 8 7 9 10 11 12 13 14 17 19 16 23 24 25 26 26 27 29 30
9 10 10 9 7 6 5 6 6 4 5 5 6 7 7 8 8 8 9 9 9 9 9 10 11 13 15 18 21 24 20 21 22 27 30 31 33 34
8 7 7 5 4 4 4 4 4 5 5 7 8 10 10 8 8 9 9 7 7 9 10 12 13 14 15 18 20 23 24 23 22 24 28 30 32 32
5 5 4 4 4 4 5 5 6 6 6 6 6 7 9 10 10 10 9 9 9 10 12 14 15 15 16 17 20 22 24 24 20 20 21 22 25 29
2 2 2 3 3 4 5 5 6 7 7 6 7 8 8 8 9 10 10 10 10 11 11 14 14 13 13 16 18 22 24 25 26 29 28 21 24 26

GFSNE_850_spd_075.txt.gz
Wind_Speed
40 41 34 36 38 37 36 36 33 35 35 40 36 34 33 35 35 34 35 33 34 35 40 45 43 41 39 42 42 42 39 44 48 52 54 55 53 51
34 38 43 44 42 41 40 38 38 36 38 46 43 43 45 43 40 42 43 44 44 43 41 44 47 49 47 44 44 45 46 47 47 52 57 57 57 54
40 42 45 44 45 44 44 46 46 47 49 45 49 45 44 42 46 49 51 51 51 50 49 46 46 47 48 44 45 46 48 50 49 46 52 54 54 59
48 46 47 48 47 48 51 51 53 54 55 52 50 52 52 51 54 54 57 59 59 56 52 49 47 47 46 44 48 48 45 47 49 44 46 49 51 57
54 55 53 51 53 53 53 54 54 56 56 55 55 56 59 59 58 57 59 60 60 58 54 52 44 40 40 40 43 47 48 45 44 43 42 49 55 59
56 57 56 57 58 58 58 59 60 60 59 57 57 61 61 61 58 58 59 57 58 53 51 50 46 44 44 45 47 48 51 46 41 38 42 48 50 49
58 59 60 61 61 61 62 63 61 59 58 52 50 49 50 50 49 52 54 57 54 54 55 55 51 52 50 46 46 47 44 42 37 37 41 43 45 41
55 57 58 59 63 64 60 59 58 54 54 54 53 51 53 55 52 51 54 54 51 48 49 54 50 52 51 47 48 45 40 35 36 39 39 36 33 34
53 53 54 54 52 52 52 51 51 52 54 59 59 55 54 57 56 53 50 51 55 50 50 53 52 46 46 44 37 33 31 32 33 32 31 30 31 32
50 51 54 51 51 51 51 50 49 50 53 54 58 63 66 65 57 60 61 54 50 49 48 37 37 32 31 26 24 25 27 27 27 27 26 26 23 20
45 51 52 53 53 54 57 57 56 57 60 59 59 63 66 73 69 64 63 53 45 35 29 26 20 20 18 14 15 16 17 17 17 17 16 16 19 20
47 52 55 56 58 57 59 55 54 55 54 51 45 38 23 23 19 18 17 17 19 9 8 8 10 13 9 13 15 14 17 18 18 18 18 20 23 25
32 28 24 40 52 48 53 44 40 35 24 12 10 11 9 6 5 5 4 5 4 5 4 6 7 7 5 4 8 13 16 16 17 17 20 21 23 25
13 9 12 17 21 13 8 5 11 13 13 12 11 14 14 11 12 8 7 6 5 4 3 1 1 3 6 8 8 11 14 18 20 21 23 25 26 27
12 14 12 13 16 18 19 16 12 11 11 10 12 13 9 8 6 6 4 5 3 2 2 4 4 6 8 9 12 15 17 19 18 15 15 20 21 21
17 14 13 16 17 16 17 16 13 12 13 12 14 9 9 5 7 8 7 6 6 7 8 9 9 9 9 10 12 14 15 13 18 21 22 21 20 18
12 12 13 14 12 12 14 12 12 11 12 11 8 8 9 10 12 10 10 9 7 7 7 8 9 10 10 13 12 15 16 17 19 22 25 29 29 28
5 9 10 11 11 11 11 11 11 11 11 10 10 11 11 10 10 11 11 11 11 10 11 12 13 11 8 5 9 13 16 20 23 24 26 29 31 30
5 9 10 10 10 10 11 12 12 11 10 9 10 9 10 10 10 10 10 11 10 9 9 11 12 14 15 16 16 11 20 20 23 26 26 28 32 34
8 9 9 9 9 9 9 10 9 8 8 9 9 9 10 11 12 12 12 12 10 10 10 11 12 14 15 17 21 23 20 23 24 27 29 31 32 33
8 7 7 7 7 8 8 8 9 9 10 10 11 11 12 12 11 11 10 11 10 10 12 13 14 15 17 18 20 22 20 18 20 24 28 32 34 36
6 6 7 7 7 8 8 9 9 9 10 10 11 11 11 11 11 12 12 12 12 13 14 14 15 16 16 17 20 23 26 25 22 23 23 26 29 33
7 7 8 8 9 9 9 9 9 9 10 11 11 11 11 11 12 12 13 14 14 15 15 15 14 14 14 17 19 23 24 27 28 31 30 25 25 28